• en France
  • Liste des pays
  • À 7 jours
  • Température de l'eau
  • Carte satellitaire
  • Carte météo
  • Widgets météo
  • user-avatar
    Se connecter

    Météo par heure à Armagh

    Ce jour, 17 Octobre, Mercredi

    Heure Température Précipitation Vent Pression Humidité
    00:00 +10°C° 0 mm 4 m/s 754 mmHg 97%
    01:00 +8°C° 0 mm 4 m/s 754 mmHg 96%
    02:00 +9°C° 0 mm 3 m/s 754 mmHg 96%
    03:00 +9°C° 0 mm 3 m/s 755 mmHg 96%
    04:00 +9°C° 0 mm 3 m/s 755 mmHg 96%
    05:00 +9°C° 0 mm 3 m/s 756 mmHg 96%
    06:00 +8°C° 0 mm 3 m/s 756 mmHg 96%
    07:00 +9°C° 0 mm 3 m/s 757 mmHg 92%
    08:00 +9°C° 0 mm 3 m/s 758 mmHg 89%
    09:00 +9°C° 0 mm 3 m/s 758 mmHg 85%
    10:00 +10°C° 0 mm 3 m/s 759 mmHg 78%
    11:00 +11°C° 0 mm 4 m/s 760 mmHg 71%
    12:00 +12°C° 0 mm 4 m/s 760 mmHg 64%
    13:00 +12°C° 0 mm 4 m/s 761 mmHg 64%
    14:00 +11°C° 0 mm 4 m/s 761 mmHg 64%
    15:00 +11°C° 0 mm 3 m/s 762 mmHg 64%
    16:00 +10°C° 0 mm 3 m/s 762 mmHg 70%
    17:00 +9°C° 0 mm 3 m/s 763 mmHg 75%
    18:00 +7°C° 0 mm 2 m/s 763 mmHg 81%
    19:00 +7°C° 0 mm 2 m/s 764 mmHg 83%
    20:00 +6°C° 0 mm 2 m/s 765 mmHg 85%
    21:00 +6°C° 0 mm 2 m/s 765 mmHg 88%
    22:00 +5°C° 0 mm 2 m/s 765 mmHg 88%
    23:00 +5°C° 0 mm 2 m/s 766 mmHg 89%

    Demain, 18 Octobre, Jeudi

    Heure Température Précipitation Vent Pression Humidité
    00:00 +6°C° 0 mm 1 m/s 766 mmHg 90%
    01:00 +6°C° 0 mm 1 m/s 766 mmHg 91%
    02:00 +5°C° 0 mm 1 m/s 766 mmHg 91%
    03:00 +5°C° 0 mm 1 m/s 766 mmHg 92%
    04:00 +5°C° 0 mm 1 m/s 766 mmHg 92%
    05:00 +5°C° 0 mm 1 m/s 766 mmHg 92%
    06:00 +5°C° 0 mm 1 m/s 766 mmHg 92%
    07:00 +6°C° 0 mm 1 m/s 766 mmHg 89%
    08:00 +7°C° 0 mm 1 m/s 766 mmHg 86%
    09:00 +8°C° 0 mm 1 m/s 766 mmHg 83%
    10:00 +9°C° 0 mm 1 m/s 766 mmHg 78%
    11:00 +10°C° 0 mm 1 m/s 766 mmHg 73%
    12:00 +12°C° 0 mm 2 m/s 766 mmHg 68%
    13:00 +12°C° 0 mm 2 m/s 766 mmHg 68%
    14:00 +12°C° 0 mm 2 m/s 765 mmHg 68%
    15:00 +12°C° 0 mm 2 m/s 765 mmHg 69%
    16:00 +9°C° 0 mm 2 m/s 764 mmHg 75%
    17:00 +8°C° 0 mm 2 m/s 764 mmHg 81%
    18:00 +7°C° 0 mm 2 m/s 764 mmHg 88%
    19:00 +6°C° 0 mm 2 m/s 764 mmHg 89%
    20:00 +5°C° 0 mm 3 m/s 764 mmHg 90%
    21:00 +5°C° 0 mm 3 m/s 764 mmHg 91%
    22:00 +5°C° 0 mm 3 m/s 764 mmHg 90%
    23:00 +5°C° 0 mm 3 m/s 763 mmHg 89%

    Après-demain, 19 Octobre, Vendredi

    Heure Température Précipitation Vent Pression Humidité
    00:00 +7°C° 0 mm 3 m/s 763 mmHg 88%
    01:00 +6°C° 0 mm 4 m/s 763 mmHg 88%
    02:00 +6°C° 0 mm 4 m/s 763 mmHg 87%
    03:00 +6°C° 0 mm 4 m/s 762 mmHg 87%
    04:00 +6°C° 0 mm 4 m/s 762 mmHg 88%
    05:00 +6°C° 0 mm 4 m/s 762 mmHg 88%
    06:00 +6°C° 0 mm 4 m/s 762 mmHg 89%
    07:00 +6°C° 0 mm 4 m/s 762 mmHg 89%
    08:00 +7°C° 0 mm 4 m/s 762 mmHg 88%
    09:00 +8°C° 0 mm 3 m/s 762 mmHg 88%
    10:00 +9°C° 0 mm 3 m/s 762 mmHg 88%
    11:00 +9°C° 0 mm 3 m/s 763 mmHg 87%
    12:00 +10°C° 0 mm 3 m/s 763 mmHg 87%
    13:00 +10°C° 0 mm 3 m/s 763 mmHg 87%
    14:00 +11°C° 0 mm 3 m/s 763 mmHg 87%
    15:00 +11°C° 0 mm 3 m/s 763 mmHg 87%
    16:00 +11°C° 0 mm 3 m/s 763 mmHg 89%
    17:00 +10°C° 0 mm 3 m/s 763 mmHg 92%
    18:00 +10°C° 0 mm 2 m/s 763 mmHg 95%
    19:00 +10°C° 0 mm 3 m/s 764 mmHg 95%
    20:00 +10°C° 0 mm 3 m/s 764 mmHg 96%
    21:00 +10°C° 0 mm 3 m/s 764 mmHg 96%
    22:00 +9°C° 0 mm 3 m/s 764 mmHg 96%
    23:00 +9°C° 0 mm 3 m/s 764 mmHg 96%

    20 Octobre, Samedi

    Heure Température Précipitation Vent Pression Humidité
    00:00 +9°C° 0 mm 3 m/s 764 mmHg 95%
    01:00 +9°C° 0 mm 3 m/s 764 mmHg 96%
    02:00 +9°C° 0 mm 3 m/s 764 mmHg 96%
    03:00 +9°C° 0 mm 3 m/s 764 mmHg 96%
    04:00 +9°C° 0 mm 3 m/s 764 mmHg 95%
    05:00 +9°C° 0 mm 3 m/s 764 mmHg 95%
    06:00 +8°C° 0 mm 4 m/s 764 mmHg 95%
    07:00 +10°C° 0 mm 4 m/s 764 mmHg 94%
    08:00 +11°C° 0 mm 4 m/s 765 mmHg 93%
    09:00 +12°C° 0 mm 4 m/s 765 mmHg 92%
    10:00 +12°C° 0 mm 4 m/s 765 mmHg 92%
    11:00 +13°C° 0 mm 4 m/s 765 mmHg 92%
    12:00 +14°C° 0 mm 4 m/s 765 mmHg 92%
    13:00 +14°C° 0 mm 4 m/s 765 mmHg 92%
    14:00 +15°C° 0 mm 4 m/s 765 mmHg 92%
    15:00 +16°C° 0 mm 3 m/s 765 mmHg 92%
    16:00 +16°C° 0 mm 3 m/s 765 mmHg 94%
    17:00 +16°C° 0 mm 3 m/s 765 mmHg 95%
    18:00 +16°C° 0 mm 3 m/s 765 mmHg 96%
    19:00 +16°C° 0 mm 3 m/s 765 mmHg 96%
    20:00 +16°C° 0 mm 3 m/s 765 mmHg 96%
    21:00 +15°C° 0 mm 4 m/s 765 mmHg 96%
    22:00 +15°C° 0 mm 4 m/s 764 mmHg 96%
    23:00 +15°C° 0 mm 4 m/s 764 mmHg 96%

    21 Octobre, Dimanche

    Heure Température Précipitation Vent Pression Humidité
    00:00 +15°C° 0 mm 4 m/s 764 mmHg 96%
    01:00 +15°C° 0.1 mm 4 m/s 763 mmHg 95%
    02:00 +15°C° 0.1 mm 4 m/s 763 mmHg 95%
    03:00 +15°C° 0.1 mm 5 m/s 762 mmHg 95%
    04:00 +15°C° 0.1 mm 5 m/s 762 mmHg 94%
    05:00 +15°C° 0.1 mm 5 m/s 762 mmHg 94%
    06:00 +15°C° 0.1 mm 5 m/s 762 mmHg 94%
    07:00 +14°C° 0.3 mm 5 m/s 762 mmHg 93%
    08:00 +14°C° 0.3 mm 6 m/s 762 mmHg 92%
    09:00 +13°C° 0.3 mm 6 m/s 763 mmHg 92%
    10:00 +11°C° 0.3 mm 6 m/s 764 mmHg 89%
    11:00 +11°C° 0.3 mm 6 m/s 764 mmHg 86%
    12:00 +10°C° 0.3 mm 5 m/s 765 mmHg 84%
    13:00 +10°C° 0 mm 6 m/s 766 mmHg 79%
    14:00 +10°C° 0 mm 6 m/s 766 mmHg 75%
    15:00 +10°C° 0 mm 6 m/s 767 mmHg 71%
    16:00 +9°C° 0 mm 5 m/s 768 mmHg 72%
    17:00 +8°C° 0 mm 5 m/s 768 mmHg 73%
    18:00 +7°C° 0 mm 4 m/s 769 mmHg 74%
    19:00 +6°C° 0 mm 4 m/s 770 mmHg 76%
    20:00 +6°C° 0 mm 4 m/s 770 mmHg 77%
    21:00 +5°C° 0 mm 3 m/s 771 mmHg 79%
    22:00 +5°C° 0 mm 3 m/s 771 mmHg 80%
    23:00 +5°C° 0 mm 3 m/s 772 mmHg 81%

    22 Octobre, Lundi

    Heure Température Précipitation Vent Pression Humidité
    00:00 +4°C° 0 mm 3 m/s 772 mmHg 82%
    01:00 +4°C° 0 mm 3 m/s 772 mmHg 83%
    02:00 +4°C° 0 mm 3 m/s 772 mmHg 84%
    03:00 +4°C° 0 mm 3 m/s 772 mmHg 84%
    04:00 +5°C° 0 mm 3 m/s 773 mmHg 85%
    05:00 +5°C° 0 mm 3 m/s 773 mmHg 86%
    06:00 +5°C° 0 mm 3 m/s 773 mmHg 87%
    07:00 +5°C° 0 mm 3 m/s 773 mmHg 85%
    08:00 +6°C° 0 mm 4 m/s 774 mmHg 82%
    09:00 +7°C° 0 mm 4 m/s 774 mmHg 80%
    10:00 +8°C° 0 mm 5 m/s 774 mmHg 77%
    11:00 +9°C° 0 mm 5 m/s 774 mmHg 73%
    12:00 +10°C° 0 mm 6 m/s 774 mmHg 70%
    13:00 +10°C° 0 mm 6 m/s 774 mmHg 71%
    14:00 +10°C° 0 mm 6 m/s 774 mmHg 72%
    15:00 +9°C° 0 mm 6 m/s 774 mmHg 73%
    16:00 +9°C° 0 mm 5 m/s 774 mmHg 77%
    17:00 +8°C° 0 mm 5 m/s 774 mmHg 80%
    18:00 +8°C° 0 mm 4 m/s 774 mmHg 84%
    19:00 +8°C° 0 mm 4 m/s 774 mmHg 85%
    20:00 +7°C° 0 mm 4 m/s 774 mmHg 86%
    21:00 +7°C° 0 mm 4 m/s 775 mmHg 88%
    22:00 +7°C° 0 mm 4 m/s 774 mmHg 89%
    23:00 +7°C° 0 mm 4 m/s 774 mmHg 91%
    Voir plus